STARLINK-33714, 63581

Orbit data source: Space-Track

STARLINK-33714, 63581 is a payload satellite owned by SpaceX/Seattle (US) in LEO that was launched on Mon, 14 Apr 2025 UTC via an FALCON 9 launch vehicle from the Air Force Eastern Test Range (AFETR). Payload-class satellites include a variety of spacecraft equipped with specific instruments for various scientific and technological missions. These include communications satellites like Starlink; space stations such as the ISS; scientific satellites like the Hubble; Earth observation satellites from companies like Planet Labs, Umbra, and HawkEye 360; GPS; miniature CubeSats for education and research; and military/defense satellites.

Loading next visibility...
Identifier
63581, 2025-076N
Orbit
LEO
Country
Flag of USUS
Related business
Manufacturer
SpaceX/Seattle
Mission
Operational Commercial Communications
Bus & Motor
STARLINK V2MO, Unknown motor
Mass
575 kg wet, ~530 kg dry
Launch date (UTC)
2025-04-14 (6 months ago)
Launch vehicle
FALCON 9
Launch site
Air Force Eastern Test Range (AFETR)
Object type
Payload
Rocket body
Debris
Shape & HBR
Box + 2 Pan, 17.7 m
Radar Cross Section
36.964 m², Large (>1 m²)

Expand to show TLE details & history
Last TLE update: 3 hours ago

TLE from 3 hours ago
0 STARLINK-33714
1 63581U 25076N   25300.17858120  .00021917  00000-0  80341-3 0  9994
2 63581  42.9947 355.5215 0000210 328.5614  31.5225 15.27587427 31413
Epoch: 2025-10-27T04:17Z
TLE epoch observation values (Epoch: 2025-10-27T04:17:09.415Z)
Latitude
-0.00003°
Longitude
-104.55191°
Altitude
482.679 km
Speed
7.626 km/s
True Right ascension
23h 42m 05s
True Declination
0° 00' 00"
Sunlit
Object was in full shadow at epoch
Visualization orbit readout
Latitude
Unknown
Longitude
Unknown
Altitude
Unknown
Speed
Unknown
Apparent Right ascension
Unknown
Apparent Declination
Unknown
Sunlit
N/A
Visualization observer readout
Local Sidereal Time
02:37:48
Azimuth
Unknown
Elevation
Unknown
Doppler factor
Unknown
Orbital elements
Apogee altitude
485.117 km
Perigee altitude
484.829 km
Semi-major axis
6,863.11 km
Eccentricity
0.00002
Inclination
42.9947°
RAAN
355.5215°
Arg. of periapsis
328.5614°
True anomaly
31.52376°
Mean anomaly
31.5225°
Eccentric anomaly
31.52313°
Mean motion
3.81735 °/min
Orbital period
94.31 mins
BSTAR
0.00080341
Loading maneuver chart data...
Computing Atmospheric mass density...
Loading historical data...
Loading historical data...
Loading historical data...
Loading historical data...
Loading historical data...
Loading historical data...
Loading historical data...

Documentation

Showing up to 5 results
|